• In Hungary
  • List of Countries
  • For 7 days
  • Water Temperature
  • Satellite Maps
  • Weather Map
  • News
  • Weather Widgets
  • user-avatar
    Login

    Hourly Weather Verviers

    Today, 24 October, Tuesday

    Time Temperature Precipitation Wind Pressure Humidity
    00:00 +12°C° 0 mm 2 mps 745 mmHg 95%
    01:00 +11°C° 0 mm 3 mps 745 mmHg 95%
    02:00 +11°C° 0 mm 3 mps 745 mmHg 95%
    03:00 +11°C° 0 mm 3 mps 745 mmHg 95%
    04:00 +11°C° 0 mm 3 mps 745 mmHg 95%
    05:00 +11°C° 0 mm 3 mps 745 mmHg 95%
    06:00 +11°C° 0 mm 3 mps 745 mmHg 94%
    07:00 +12°C° 0 mm 4 mps 745 mmHg 93%
    08:00 +13°C° 0 mm 4 mps 745 mmHg 92%
    09:00 +13°C° 0 mm 4 mps 745 mmHg 90%
    10:00 +13°C° 0.4 mm 4 mps 745 mmHg 91%
    11:00 +13°C° 0.4 mm 4 mps 745 mmHg 91%
    12:00 +13°C° 0.4 mm 5 mps 745 mmHg 92%
    13:00 +13°C° 0.2 mm 4 mps 745 mmHg 92%
    14:00 +13°C° 0.2 mm 4 mps 745 mmHg 93%
    15:00 +14°C° 0.2 mm 4 mps 745 mmHg 93%
    16:00 +14°C° 0 mm 4 mps 745 mmHg 94%
    17:00 +14°C° 0 mm 4 mps 745 mmHg 95%
    18:00 +13°C° 0 mm 3 mps 745 mmHg 95%
    19:00 +13°C° 0 mm 3 mps 745 mmHg 96%
    20:00 +13°C° 0 mm 3 mps 745 mmHg 96%
    21:00 +13°C° 0 mm 3 mps 746 mmHg 97%
    22:00 +13°C° 0 mm 3 mps 745 mmHg 96%
    23:00 +13°C° 0 mm 3 mps 745 mmHg 96%

    Tomorrow, 25 October, Wednesday

    Time Temperature Precipitation Wind Pressure Humidity
    00:00 +13°C° 0 mm 4 mps 745 mmHg 96%
    01:00 +13°C° 0 mm 4 mps 745 mmHg 96%
    02:00 +13°C° 0 mm 4 mps 745 mmHg 95%
    03:00 +13°C° 0 mm 4 mps 745 mmHg 95%
    04:00 +13°C° 0 mm 4 mps 745 mmHg 95%
    05:00 +13°C° 0 mm 4 mps 745 mmHg 95%
    06:00 +13°C° 0 mm 4 mps 745 mmHg 95%
    07:00 +13°C° 0 mm 4 mps 745 mmHg 93%
    08:00 +14°C° 0 mm 5 mps 746 mmHg 90%
    09:00 +15°C° 0 mm 5 mps 746 mmHg 88%
    10:00 +15°C° 0 mm 5 mps 746 mmHg 84%
    11:00 +17°C° 0 mm 4 mps 746 mmHg 81%
    12:00 +17°C° 0 mm 4 mps 746 mmHg 77%
    13:00 +17°C° 0 mm 4 mps 746 mmHg 78%
    14:00 +17°C° 0 mm 3 mps 746 mmHg 80%
    15:00 +17°C° 0 mm 3 mps 746 mmHg 81%
    16:00 +16°C° 0 mm 2 mps 746 mmHg 86%
    17:00 +14°C° 0 mm 2 mps 746 mmHg 90%
    18:00 +13°C° 0 mm 2 mps 747 mmHg 95%
    19:00 +13°C° 0 mm 2 mps 747 mmHg 95%
    20:00 +13°C° 0 mm 2 mps 747 mmHg 95%
    21:00 +13°C° 0 mm 2 mps 747 mmHg 96%
    22:00 +13°C° 0 mm 2 mps 747 mmHg 96%
    23:00 +13°C° 0 mm 2 mps 747 mmHg 96%

    Day after tomorrow, 26 October, Thursday

    Time Temperature Precipitation Wind Pressure Humidity
    00:00 +13°C° 0 mm 2 mps 747 mmHg 96%
    01:00 +13°C° 0 mm 2 mps 747 mmHg 96%
    02:00 +12°C° 0 mm 2 mps 747 mmHg 96%
    03:00 +12°C° 0 mm 2 mps 747 mmHg 96%
    04:00 +12°C° 0 mm 2 mps 747 mmHg 97%
    05:00 +12°C° 0 mm 2 mps 747 mmHg 97%
    06:00 +12°C° 0 mm 1 mps 747 mmHg 97%
    07:00 +13°C° 0 mm 2 mps 747 mmHg 94%
    08:00 +14°C° 0 mm 2 mps 748 mmHg 91%
    09:00 +16°C° 0 mm 2 mps 748 mmHg 88%
    10:00 +17°C° 0 mm 2 mps 748 mmHg 83%
    11:00 +18°C° 0 mm 2 mps 748 mmHg 79%
    12:00 +19°C° 0 mm 2 mps 747 mmHg 74%
    13:00 +19°C° 0 mm 2 mps 747 mmHg 76%
    14:00 +19°C° 0 mm 2 mps 747 mmHg 77%
    15:00 +19°C° 0 mm 1 mps 747 mmHg 79%
    16:00 +18°C° 0 mm 1 mps 747 mmHg 83%
    17:00 +16°C° 0 mm 1 mps 747 mmHg 87%
    18:00 +13°C° 0 mm 0 mps 747 mmHg 91%
    19:00 +14°C° 0 mm 1 mps 747 mmHg 92%
    20:00 +14°C° 0 mm 1 mps 747 mmHg 93%
    21:00 +14°C° 0 mm 1 mps 747 mmHg 93%
    22:00 +14°C° 0 mm 1 mps 747 mmHg 94%
    23:00 +14°C° 0 mm 2 mps 746 mmHg 94%

    27 October, Friday

    Time Temperature Precipitation Wind Pressure Humidity
    00:00 +14°C° 0 mm 2 mps 746 mmHg 95%
    01:00 +13°C° 0 mm 2 mps 746 mmHg 95%
    02:00 +13°C° 0 mm 2 mps 746 mmHg 96%
    03:00 +12°C° 0 mm 3 mps 746 mmHg 96%
    04:00 +12°C° 0.1 mm 3 mps 745 mmHg 96%
    05:00 +12°C° 0.1 mm 3 mps 745 mmHg 96%
    06:00 +11°C° 0.1 mm 3 mps 745 mmHg 96%
    07:00 +12°C° 0.2 mm 3 mps 745 mmHg 95%
    08:00 +12°C° 0.2 mm 3 mps 746 mmHg 94%
    09:00 +12°C° 0.2 mm 4 mps 746 mmHg 94%
    10:00 +12°C° 0.4 mm 4 mps 746 mmHg 91%
    11:00 +12°C° 0.4 mm 4 mps 746 mmHg 89%
    12:00 +12°C° 0.4 mm 4 mps 746 mmHg 87%
    13:00 +12°C° 0.1 mm 4 mps 746 mmHg 84%
    14:00 +12°C° 0.1 mm 4 mps 746 mmHg 82%
    15:00 +12°C° 0.1 mm 4 mps 746 mmHg 79%
    16:00 +11°C° 0 mm 3 mps 747 mmHg 83%
    17:00 +10°C° 0 mm 3 mps 747 mmHg 87%
    18:00 +8°C° 0 mm 2 mps 747 mmHg 90%
    19:00 +8°C° 0 mm 2 mps 747 mmHg 91%
    20:00 +7°C° 0 mm 2 mps 748 mmHg 92%
    21:00 +8°C° 0 mm 1 mps 748 mmHg 93%
    22:00 +7°C° 0 mm 1 mps 748 mmHg 93%
    23:00 +7°C° 0 mm 1 mps 748 mmHg 93%

    28 October, Saturday

    Time Temperature Precipitation Wind Pressure Humidity
    00:00 +7°C° 0 mm 1 mps 747 mmHg 93%
    01:00 +7°C° 0 mm 1 mps 747 mmHg 92%
    02:00 +7°C° 0 mm 1 mps 747 mmHg 92%
    03:00 +5°C° 0 mm 2 mps 747 mmHg 91%
    04:00 +5°C° 0 mm 2 mps 746 mmHg 91%
    05:00 +5°C° 0 mm 2 mps 746 mmHg 91%
    06:00 +5°C° 0 mm 2 mps 746 mmHg 91%
    07:00 +6°C° 0 mm 2 mps 745 mmHg 89%
    08:00 +7°C° 0 mm 2 mps 745 mmHg 87%
    09:00 +8°C° 0 mm 3 mps 745 mmHg 85%
    10:00 +8°C° 0 mm 3 mps 744 mmHg 81%
    11:00 +9°C° 0 mm 3 mps 743 mmHg 78%
    12:00 +10°C° 0 mm 4 mps 743 mmHg 75%
    13:00 +10°C° 0 mm 3 mps 742 mmHg 76%
    14:00 +10°C° 0 mm 3 mps 741 mmHg 77%
    15:00 +10°C° 0 mm 3 mps 740 mmHg 78%
    16:00 +10°C° 0.1 mm 3 mps 740 mmHg 83%
    17:00 +9°C° 0.1 mm 3 mps 740 mmHg 87%
    18:00 +8°C° 0.1 mm 3 mps 739 mmHg 92%
    19:00 +9°C° 0.5 mm 3 mps 739 mmHg 93%
    20:00 +9°C° 0.5 mm 3 mps 739 mmHg 94%
    21:00 +9°C° 0.5 mm 3 mps 739 mmHg 95%
    22:00 +8°C° 0.3 mm 3 mps 739 mmHg 95%
    23:00 +7°C° 0.3 mm 4 mps 739 mmHg 94%

    29 October, Sunday

    Time Temperature Precipitation Wind Pressure Humidity
    00:00 +7°C° 0.3 mm 4 mps 739 mmHg 94%
    01:00 +6°C° 0.1 mm 4 mps 739 mmHg 91%
    02:00 +6°C° 0.1 mm 4 mps 739 mmHg 89%
    03:00 +6°C° 0.1 mm 4 mps 739 mmHg 86%
    04:00 +6°C° 0.1 mm 4 mps 739 mmHg 86%
    05:00 +6°C° 0.1 mm 5 mps 740 mmHg 85%
    06:00 +6°C° 0.1 mm 5 mps 740 mmHg 85%
    07:00 +6°C° 0.1 mm 5 mps 741 mmHg 83%
    08:00 +7°C° 0.1 mm 5 mps 741 mmHg 80%
    09:00 +7°C° 0.1 mm 6 mps 742 mmHg 78%
    10:00 +7°C° 0.1 mm 6 mps 742 mmHg 75%
    11:00 +8°C° 0.1 mm 6 mps 742 mmHg 72%
    12:00 +8°C° 0.1 mm 6 mps 742 mmHg 69%
    13:00 +8°C° 0.1 mm 5 mps 743 mmHg 70%
    14:00 +8°C° 0.1 mm 5 mps 743 mmHg 71%
    15:00 +8°C° 0.1 mm 4 mps 743 mmHg 71%
    16:00 +7°C° 0 mm 4 mps 743 mmHg 76%
    17:00 +7°C° 0 mm 3 mps 744 mmHg 81%
    18:00 +5°C° 0 mm 2 mps 744 mmHg 86%
    19:00 +6°C° 0 mm 2 mps 744 mmHg 86%
    20:00 +6°C° 0 mm 2 mps 745 mmHg 86%
    21:00 +7°C° 0 mm 2 mps 745 mmHg 86%
    22:00 +6°C° 0 mm 2 mps 745 mmHg 87%
    23:00 +6°C° 0 mm 2 mps 745 mmHg 89%

    30 October, Monday

    Time Temperature Precipitation Wind Pressure Humidity
    00:00 +5°C° 0 mm 3 mps 745 mmHg 90%
    01:00 +5°C° 0 mm 3 mps 744 mmHg 90%
    02:00 +5°C° 0 mm 3 mps 744 mmHg 90%
    03:00 +4°C° 0 mm 3 mps 744 mmHg 89%
    04:00 +5°C° 0 mm 3 mps 744 mmHg 90%
    05:00 +5°C° 0 mm 4 mps 744 mmHg 90%
    06:00 +5°C° 0 mm 4 mps 744 mmHg 90%
    07:00 +6°C° 0 mm 4 mps 744 mmHg 89%
    08:00 +6°C° 0 mm 4 mps 745 mmHg 89%
    09:00 +7°C° 0 mm 4 mps 745 mmHg 88%
    10:00 +7°C° 0 mm 4 mps 745 mmHg 86%
    11:00 +8°C° 0 mm 4 mps 745 mmHg 84%
    12:00 +10°C° 0 mm 4 mps 745 mmHg 83%
    13:00 +10°C° 0 mm 3 mps 745 mmHg 84%
    14:00 +10°C° 0 mm 3 mps 745 mmHg 86%
    15:00 +10°C° 0 mm 3 mps 745 mmHg 87%
    16:00 +9°C° 0.1 mm 3 mps 745 mmHg 90%
    17:00 +9°C° 0.1 mm 2 mps 746 mmHg 93%
    18:00 +9°C° 0.1 mm 2 mps 746 mmHg 95%
    19:00 +8°C° 0 mm 2 mps 746 mmHg 96%
    20:00 +8°C° 0 mm 2 mps 747 mmHg 96%
    21:00 +8°C° 0 mm 2 mps 747 mmHg 97%
    22:00 +9°C° 0 mm 1 mps 747 mmHg 97%
    23:00 +9°C° 0 mm 1 mps 747 mmHg 97%
    Show more